Вернуться в каталог

ELEKTRO-L 3

АктивенПогодаGEO
NORAD 44903·PAYLOAD·🇷🇺 Russia

Запущен Dec 24, 2019 с Baikonur Cosmodrome

Loading…

TLE

СвежийSource: Space-Track

Эпоха: Sep 14, 2026, 22:40 UTC

1 44903U 19095A   26257.94496751  .00000048  00000-0  00000-0 0  9993
2 44903   0.4824  82.3412 0030935  75.3606 244.7327  0.99822502 24605

Отслеживайте ELEKTRO-L 3 в реальном времени с AllMySat

Download on the App Store